Stephenville, TX

6:37 AM CDT on July 28, 2017 (GMT -0500)
Clark Municipal

Weather History for KSEP - December, 2011

Change the Weather History Date:

Tuesday, December 6, 2011

  Actual Average Record
Temperature  
Mean Temperature 30 °F -  
Max Temperature 32 °F 62 °F 80 °F (1975)
Min Temperature 28 °F 39 °F 10 °F (1950)
Degree Days  
Heating Degree Days 35    
Moisture  
Dew Point 23 °F    
Average Humidity 76    
Maximum Humidity 80    
Minimum Humidity 69    
Precipitation  
Precipitation 0.00 in - - ()
Sea Level Pressure  
Sea Level Pressure 30.34 in    
Wind  
Wind Speed 13 mph (NNW)    
Max Wind Speed 17 mph    
Max Gust Speed 24 mph    
Visibility 10 miles    
Events      
Averages and records for this station are not official NWS values.
T = Trace of Precipitation, MM = Missing Value Source: NWS Daily Summary

Daily Weather History Graph

Daily Weather History Graph

Search for Another Location

Airport or City:

Trip Planner

Search our weather history database for the weather conditions in past years. The results will help you decide how hot, cold, wet, or windy it might be!

Date:

Astronomy

Dec. 06, 2011 Rise Set
Actual Time 7:19 AM CST 5:27 PM CST
Civil Twilight 6:52 AM CST 5:54 PM CST
Nautical Twilight 6:22 AM CST 6:24 PM CST
Astronomical Twilight 5:52 AM CST 6:54 PM CST
Moon 2:49 PM CST (12/6) 3:47 AM CST (12/6)
Length of Visible Light 11h 01m
Length of Day
10h 07m
Waxing Gibbous, 87% of the Moon is Illuminated
Dec 6
Waxing Gibbous
Dec 10
Full
Dec 17
Last Quarter
Dec 24
New
Jan 1
First Quarter

Hourly Weather History & Observations

Time (CST) Temp. Windchill Dew Point Humidity Pressure Visibility Wind Dir Wind Speed Gust Speed Precip Events Conditions
12:15 AM 32.0 °F 21.6 °F 24.8 °F 75% 30.32 in 10.0 mi North 15.0 mph 18.4 mph N/A   Overcast
12:35 AM 32.0 °F 22.5 °F 24.8 °F 75% 30.32 in 10.0 mi NNW 12.7 mph 18.4 mph N/A   Overcast
12:55 AM 32.0 °F 22.5 °F 24.8 °F 75% 30.32 in 10.0 mi North 12.7 mph 18.4 mph N/A   Overcast
1:15 AM 32.0 °F 21.6 °F 24.8 °F 75% 30.31 in 10.0 mi North 15.0 mph 24.2 mph N/A   Overcast
1:35 AM 32.0 °F 21.6 °F 24.8 °F 75% 30.32 in 10.0 mi North 15.0 mph 21.9 mph N/A   Overcast
1:55 AM 32.0 °F 22.1 °F 24.8 °F 75% 30.32 in 10.0 mi North 13.8 mph 20.7 mph N/A   Overcast
2:15 AM 30.2 °F 19.8 °F 24.8 °F 80% 30.31 in 10.0 mi North 13.8 mph 21.9 mph N/A   Overcast
2:35 AM 30.2 °F 19.8 °F 24.8 °F 80% 30.32 in 10.0 mi NNW 13.8 mph 21.9 mph N/A   Overcast
2:55 AM 30.2 °F 19.3 °F 24.8 °F 80% 30.32 in 10.0 mi North 15.0 mph 19.6 mph N/A   Overcast
3:15 AM 30.2 °F 19.3 °F 23.0 °F 75% 30.32 in 10.0 mi NNW 15.0 mph 19.6 mph N/A   Overcast
3:35 AM 30.2 °F 19.8 °F 23.0 °F 75% 30.33 in 10.0 mi North 13.8 mph 19.6 mph N/A   Overcast
3:55 AM 30.2 °F 20.2 °F 23.0 °F 75% 30.33 in 10.0 mi North 12.7 mph 20.7 mph N/A   Overcast
4:15 AM 30.2 °F 20.8 °F 23.0 °F 75% 30.33 in 10.0 mi North 11.5 mph 17.3 mph N/A   Mostly Cloudy
4:35 AM 30.2 °F 21.3 °F 23.0 °F 75% 30.33 in 10.0 mi North 10.4 mph 16.1 mph N/A   Overcast
4:55 AM 30.2 °F 21.3 °F 23.0 °F 75% 30.33 in 10.0 mi North 10.4 mph - N/A   Overcast
5:15 AM 30.2 °F 20.8 °F 23.0 °F 75% 30.33 in 10.0 mi NNW 11.5 mph - N/A   Overcast
5:35 AM 28.4 °F 17.0 °F 23.0 °F 80% 30.33 in 10.0 mi North 15.0 mph - N/A   Overcast
5:55 AM 28.4 °F 19.1 °F 23.0 °F 80% 30.33 in 10.0 mi NNW 10.4 mph - N/A   Overcast
6:15 AM 28.4 °F 17.5 °F 23.0 °F 80% 30.33 in 10.0 mi NNW 13.8 mph 20.7 mph N/A   Overcast
6:35 AM 28.4 °F 17.5 °F 23.0 °F 80% 30.33 in 10.0 mi NNW 13.8 mph - N/A   Overcast
6:55 AM 28.4 °F 17.0 °F 23.0 °F 80% 30.33 in 10.0 mi NNW 15.0 mph 19.6 mph N/A   Overcast
7:15 AM 28.4 °F 17.0 °F 23.0 °F 80% 30.34 in 10.0 mi North 15.0 mph - N/A   Overcast
7:35 AM 28.4 °F 17.5 °F 23.0 °F 80% 30.34 in 10.0 mi North 13.8 mph - N/A   Overcast
7:55 AM 30.2 °F 19.3 °F 23.0 °F 75% 30.35 in 10.0 mi NNW 15.0 mph 18.4 mph N/A   Overcast
8:15 AM 30.2 °F 20.8 °F 23.0 °F 75% 30.35 in 10.0 mi North 11.5 mph - N/A   Overcast
8:35 AM 30.2 °F 19.8 °F 23.0 °F 75% 30.36 in 10.0 mi NNW 13.8 mph 20.7 mph N/A   Overcast
8:55 AM 30.2 °F 19.8 °F 23.0 °F 75% 30.36 in 10.0 mi North 13.8 mph 18.4 mph N/A   Overcast
9:15 AM 30.2 °F 18.5 °F 23.0 °F 75% 30.36 in 10.0 mi North 17.3 mph 20.7 mph N/A   Overcast
9:35 AM 30.2 °F 18.9 °F 21.2 °F 69% 30.36 in 10.0 mi NW 16.1 mph 20.7 mph N/A   Overcast
9:55 AM 30.2 °F 19.3 °F 21.2 °F 69% 30.37 in 10.0 mi NW 15.0 mph 23.0 mph N/A   Overcast
10:15 AM 30.2 °F 19.3 °F 21.2 °F 69% 30.38 in 10.0 mi NNW 15.0 mph 19.6 mph N/A   Overcast
10:35 AM 30.2 °F 19.3 °F 23.0 °F 75% 30.37 in 10.0 mi NNW 15.0 mph 20.7 mph N/A   Overcast
10:55 AM 32.0 °F 22.5 °F 23.0 °F 69% 30.37 in 10.0 mi NNW 12.7 mph 18.4 mph N/A   Overcast
11:15 AM 32.0 °F 22.5 °F 23.0 °F 69% 30.37 in 10.0 mi NNW 12.7 mph - N/A   Overcast
11:35 AM 32.0 °F 23.6 °F 23.0 °F 69% 30.37 in 10.0 mi NW 10.4 mph - N/A   Overcast
11:55 AM 32.0 °F 22.5 °F 23.0 °F 69% 30.36 in 10.0 mi NW 12.7 mph 16.1 mph N/A   Overcast
12:15 PM 30.2 °F 19.8 °F 23.0 °F 75% 30.36 in 10.0 mi NW 13.8 mph 18.4 mph N/A   Overcast
12:35 PM 30.2 °F 19.3 °F 23.0 °F 75% 30.35 in 10.0 mi NW 15.0 mph - N/A   Overcast
12:55 PM 30.2 °F 20.2 °F 23.0 °F 75% 30.35 in 10.0 mi NW 12.7 mph 19.6 mph N/A   Overcast
1:15 PM 30.2 °F 18.9 °F 23.0 °F 75% 30.34 in 10.0 mi NNW 16.1 mph 20.7 mph N/A   Overcast
1:35 PM 30.2 °F 19.3 °F 23.0 °F 75% 30.33 in 10.0 mi NNW 15.0 mph 20.7 mph N/A   Overcast
1:55 PM 30.2 °F 20.8 °F 23.0 °F 75% 30.33 in 10.0 mi NW 11.5 mph - N/A   Overcast
2:15 PM 30.2 °F 21.9 °F 23.0 °F 75% 30.33 in 10.0 mi NW 9.2 mph 17.3 mph N/A   Overcast
2:35 PM 30.2 °F 21.9 °F 23.0 °F 75% 30.32 in 10.0 mi NW 9.2 mph - N/A   Overcast
2:55 PM 30.2 °F 21.9 °F 23.0 °F 75% 30.32 in 10.0 mi WNW 9.2 mph - N/A   Overcast
3:15 PM 30.2 °F 20.2 °F 23.0 °F 75% 30.32 in 10.0 mi WNW 12.7 mph 17.3 mph N/A   Overcast
3:35 PM 30.2 °F 20.8 °F 23.0 °F 75% 30.32 in 10.0 mi WNW 11.5 mph 17.3 mph N/A   Overcast
3:55 PM 30.2 °F 21.9 °F 23.0 °F 75% 30.33 in 10.0 mi NW 9.2 mph - N/A   Overcast
4:15 PM 30.2 °F 21.3 °F 23.0 °F 75% 30.32 in 10.0 mi NW 10.4 mph - N/A   Overcast
4:35 PM 28.4 °F 19.1 °F 23.0 °F 80% 30.33 in 10.0 mi NW 10.4 mph 16.1 mph N/A   Overcast
4:55 PM 28.4 °F 18.5 °F 23.0 °F 80% 30.32 in 10.0 mi NW 11.5 mph - N/A   Overcast
5:15 PM 28.4 °F 19.1 °F 23.0 °F 80% 30.33 in 10.0 mi West 10.4 mph - N/A   Overcast
5:35 PM 28.4 °F 19.1 °F 23.0 °F 80% 30.33 in 10.0 mi WNW 10.4 mph - N/A   Overcast
5:55 PM 30.2 °F 22.6 °F 23.0 °F 75% 30.33 in 10.0 mi WNW 8.1 mph - N/A   Overcast
6:15 PM 30.2 °F 24.3 °F 23.0 °F 75% 30.32 in 10.0 mi WNW 5.8 mph - N/A   Overcast
6:35 PM 30.2 °F 24.3 °F 23.0 °F 75% 30.33 in 10.0 mi NW 5.8 mph - N/A   Overcast
6:55 PM 30.2 °F 24.3 °F 23.0 °F 75% 30.33 in 10.0 mi NW 5.8 mph - N/A   Overcast
7:15 PM 30.2 °F 23.4 °F 23.0 °F 75% 30.33 in 10.0 mi WNW 6.9 mph - N/A   Overcast
7:35 PM 30.2 °F 21.3 °F 23.0 °F 75% 30.34 in 10.0 mi NW 10.4 mph - N/A   Overcast
7:55 PM 30.2 °F 23.4 °F 23.0 °F 75% 30.34 in 10.0 mi NW 6.9 mph - N/A   Overcast
8:15 PM 30.2 °F 25.4 °F 23.0 °F 75% 30.35 in 10.0 mi NW 4.6 mph - N/A   Overcast
8:35 PM 30.2 °F 24.3 °F 23.0 °F 75% 30.35 in 10.0 mi NW 5.8 mph - N/A   Mostly Cloudy
8:55 PM 30.2 °F 24.3 °F 23.0 °F 75% 30.36 in 10.0 mi WNW 5.8 mph - N/A   Mostly Cloudy
9:15 PM 30.2 °F 24.3 °F 21.2 °F 69% 30.36 in 10.0 mi WNW 5.8 mph - N/A   Scattered Clouds
9:35 PM 28.4 °F 22.2 °F 21.2 °F 74% 30.36 in 10.0 mi West 5.8 mph - N/A   Clear
9:55 PM 28.4 °F 23.3 °F 21.2 °F 74% 30.36 in 10.0 mi West 4.6 mph - N/A   Clear
10:15 PM 28.4 °F 22.2 °F 21.2 °F 74% 30.36 in 10.0 mi West 5.8 mph - N/A   Clear
10:35 PM 28.4 °F 22.2 °F 21.2 °F 74% 30.36 in 10.0 mi West 5.8 mph - N/A   Clear
10:55 PM 28.4 °F 23.3 °F 21.2 °F 74% 30.36 in 10.0 mi West 4.6 mph - N/A   Clear
11:15 PM 28.4 °F 22.2 °F 21.2 °F 74% 30.37 in 10.0 mi West 5.8 mph - N/A   Clear
11:35 PM 26.6 °F 21.2 °F 21.2 °F 80% 30.37 in 10.0 mi WNW 4.6 mph - N/A   Clear
11:55 PM 28.4 °F 23.3 °F 21.2 °F 74% 30.36 in 10.0 mi WNW 4.6 mph - N/A   Clear